COSMOS 952 DEB, 44567

Orbit data source: Space-Track

COSMOS 952 DEB, 44567 is space debris in LEO originally from a launch on Fri, 16 Sep 1977 UTC launched from the Tyuratam Missile And Space Complex (TTMTR). Debris objects in space refer to the collection of defunct objects orbiting the Earth. Examples of debris include non-operational satellites, rocket bodies, and fragments generated from explosions, collisions, or faulty payload assembly.

Loading next visibility...
Identifier
44567, 1977-088D
Orbit
LEO
Country
Flag of CISCIS
Related business
Manufacturer
Unknown
Mission
Spacecraft
Bus & Motor
Unknown
Mass
Unknown
Launch date (UTC)
1977-09-16 (49 years ago)
Launch vehicle
Unknown
Launch site
Tyuratam Missile And Space Complex (TTMTR)
Object type
Payload
Rocket body
Debris
Shape & HBR
Unknown shape, 0.1 m
Radar Cross Section
Small (<0.1 m²)

Expand to show TLE details & history
Last TLE update: 2 weeks ago

TLE from 2 weeks ago
0 COSMOS 952 DEB
1 44567U 77088D   26158.21739823  .00000164  00000-0  22012-3 0  9994
2 44567  64.9335 139.8462 0042542   2.7788  14.6091 13.85686073634270
Epoch: 2026-06-07T05:13Z
TLE epoch observation values (Epoch: 2026-06-07T05:13:03.207Z)
Latitude
15.81424°
Longitude
173.5337°
Altitude
914.906 km
Speed
7.411 km/s
True Right ascension
09h 49m 40s
True Declination
15° 43' 34"
Sunlit
Object was in daylight at epoch
Visualization orbit readout
Latitude
Unknown
Longitude
Unknown
Altitude
Unknown
Speed
Unknown
Apparent Right ascension
Unknown
Apparent Declination
Unknown
Sunlit
N/A
Visualization observer readout
Local Sidereal Time
21:23:36
Azimuth
Unknown
Elevation
Unknown
Doppler factor
Unknown
Orbital elements
Apogee altitude
973.548 km
Perigee altitude
911.262 km
Semi-major axis
7,320.542 km
Eccentricity
0.00425
Inclination
64.9335°
RAAN
139.8462°
Arg. of periapsis
2.7788°
True anomaly
14.73269°
Mean anomaly
14.6091°
Eccentric anomaly
14.67083°
Mean motion
3.4652 °/min
Orbital period
103.89 mins
BSTAR
0.00022012
Loading maneuver chart data...
Computing Atmospheric mass density...
Loading historical data...
Loading historical data...
Loading historical data...
Loading historical data...
Loading historical data...
Loading historical data...
Loading historical data...

Documentation

Showing up to 5 results
|